Regional Weather Roundup
Issued by NWS

Home | Current Version | Previous Version | Text Only | Print | Product List | Glossary Off
Versions: 1 2 3 4 5 6 7 8 9 10 11 12 13 14 15 16 17 18 19 20 21 22 23 24 25 26 27 28 29 30 31 32 33 34 35 36 37 38 39 40 41 42 43 44 45 46 47 48 49 50

000
ASUS43 KLMK 150910
RWRKY
KENTUCKY REGIONAL WEATHER ROUNDUP
NATIONAL WEATHER SERVICE LOUISVILLE KY
400 AM EST FRI DEC 15 2017

NOTE "FAIR" INDICATES FEW OR NO CLOUDS BELOW 12,000 FEET
WITH NO SIGNIFICANT WEATHER AND/OR OBSTRUCTIONS TO VISIBILITY.

KYZ001>023-026-027-061>063-070>075-151000-
WESTERN AND SOUTH CENTRAL KENTUCKY

CITY           SKY/WX    TMP DP  RH WIND       PRES   REMARKS
PADUCAH        CLOUDY    32  22  66 W3        30.12S
HENDERSON      CLOUDY    31  24  75 W3        30.10S
OWENSBORO      CLOUDY    31  23  72 W6        30.09S WCI  25
HOPKINSVILLE   CLOUDY    31  22  68 W5        30.09S WCI  26
BOWLING GREEN  CLOUDY    32  22  66 NW6       30.08S WCI  26
GLASGOW        CLOUDY    31  22  71 CALM      30.06S
$$

KYZ024-025-028>034-038-045-046-053-151000-
NORTH CENTRAL KENTUCKY

CITY           SKY/WX    TMP DP  RH WIND       PRES   REMARKS
LOUISVILLE/SDF CLOUDY    29  18  63 CALM      30.06F
LOUISVILLE/LOU CLOUDY    27  20  75 S5        30.07F WCI  22
FORT KNOX      CLOUDY    28  18  66 S3        30.04S
$$

KYZ035>037-039>044-047>052-055>060-089>105-151000-
NORTHEAST KENTUCKY

CITY           SKY/WX    TMP DP  RH WIND       PRES   REMARKS
LEXINGTON      CLOUDY    26  18  71 CALM      30.04S
COVINGTON      CLOUDY    23  18  81 SW3       30.03S
FRANKFORT      CLOUDY    25  17  72 CALM      30.04S
$$

KYZ054-064>069-076>088-106>120-151000-
SOUTHEAST KENTUCKY

CITY           SKY/WX    TMP DP  RH WIND       PRES   REMARKS
JACKSON        CLOUDY    29  21  72 CALM      29.99F
LONDON         CLOUDY    31  22  69 CALM      30.02R
SOMERSET       CLOUDY    30  21  69 CALM      30.05S
MIDDLESBORO    CLOUDY    25  23  94 CALM      30.01F
MONTICELLO     CLOUDY    31  24  75 NW7       30.05S WCI  24
$$





USA.gov is the U.S. government's official web portal to all federal, state and local government web resources and services.